Weather History for KCKP - October, 2013

Change the Weather History Date:

Thursday, October 24, 2013

  Actual Average Record
Temperature  
Mean Temperature 40 °F -  
Max Temperature 50 °F 59 °F 80 °F (1952)
Min Temperature 29 °F 35 °F 19 °F (1972)
Degree Days  
Heating Degree Days 26    
Moisture  
Dew Point 28 °F    
Average Humidity 68    
Maximum Humidity 90    
Minimum Humidity 35    
Precipitation  
Precipitation 0.00 in - - ()
Sea Level Pressure  
Sea Level Pressure 30.30 in    
Wind  
Wind Speed 7 mph (NW)    
Max Wind Speed 16 mph    
Max Gust Speed 24 mph    
Visibility 10 miles    
Events      
Averages and records for this station are not official NWS values.
T = Trace of Precipitation, MM = Missing Value Source: NWS Daily Summary

Daily Weather History Graph

Daily Weather History Graph

Search for Another Location

Airport or City:

Trip Planner

Search our weather history database for the weather conditions in past years. The results will help you decide how hot, cold, wet, or windy it might be!

Date:

Astronomy

Oct. 24, 2013 Rise Set
Actual Time 7:46 AM CDT 6:25 PM CDT
Civil Twilight 7:17 AM CDT 6:54 PM CDT
Nautical Twilight 6:44 AM CDT 7:27 PM CDT
Astronomical Twilight 6:11 AM CDT 8:00 PM CDT
Moon 10:48 PM CDT (10/24) 12:51 PM CDT (10/24)
Length of Visible Light 11h 36m
Length of Day
10h 38m
Waning Gibbous, 71% of the Moon is Illuminated
Oct 24
Waning Gibbous
Oct 26
Last Quarter
Nov 3
New
Nov 9
First Quarter
Nov 17
Full

Hourly Weather History & Observations

Time (CDT) Temp. Windchill Dew Point Humidity Pressure Visibility Wind Dir Wind Speed Gust Speed Precip Events Conditions
12:15 AM 34.2 °F 29.0 °F 27.0 °F 75% 30.18 in 10.0 mi WNW 5.8 mph - N/A   Overcast
12:35 AM 35.1 °F 28.6 °F 27.5 °F 74% 30.18 in 10.0 mi WNW 8.1 mph - N/A   Mostly Cloudy
12:55 AM 35.2 °F 29.5 °F 28.0 °F 75% 30.19 in 10.0 mi WNW 6.9 mph - N/A   Mostly Cloudy
1:15 AM 35.4 °F 30.5 °F 28.8 °F 77% 30.19 in 10.0 mi WNW 5.8 mph - N/A   Overcast
1:35 AM 36.1 °F 30.6 °F 29.1 °F 76% 30.20 in 10.0 mi NW 6.9 mph - N/A   Overcast
1:55 AM 36.1 °F 31.4 °F 29.3 °F 76% 30.20 in 10.0 mi NW 5.8 mph - N/A   Mostly Cloudy
2:15 AM 35.1 °F 30.1 °F 29.3 °F 80% 30.20 in 10.0 mi NW 5.8 mph - N/A   Scattered Clouds
2:35 AM 34.7 °F 30.6 °F 29.3 °F 81% 30.21 in 10.0 mi NW 4.6 mph - N/A   Clear
2:55 AM 34.0 °F 29.8 °F 29.5 °F 84% 30.22 in 10.0 mi NW 4.6 mph - N/A   Clear
3:15 AM 33.8 °F 29.6 °F 29.3 °F 84% 30.23 in 10.0 mi NW 4.6 mph - N/A   Clear
3:35 AM 34.0 °F 28.8 °F 29.3 °F 83% 30.23 in 10.0 mi NW 5.8 mph - N/A   Clear
3:55 AM 34.7 °F 28.8 °F 30.0 °F 83% 30.23 in 10.0 mi NW 6.9 mph - N/A   Mostly Cloudy
4:15 AM 34.7 °F 28.1 °F 29.8 °F 82% 30.23 in 10.0 mi NW 8.1 mph - N/A   Mostly Cloudy
4:35 AM 35.6 °F 29.2 °F 30.2 °F 81% 30.24 in 10.0 mi NW 8.1 mph - N/A   Overcast
4:55 AM 35.8 °F 29.4 °F 30.2 °F 80% 30.24 in 10.0 mi NW 8.1 mph - N/A   Overcast
5:15 AM 34.9 °F 29.0 °F 29.8 °F 82% 30.25 in 10.0 mi NW 6.9 mph - N/A   Mostly Cloudy
5:35 AM 34.2 °F 28.2 °F 29.5 °F 83% 30.26 in 10.0 mi WNW 6.9 mph - N/A   Scattered Clouds
5:55 AM 33.1 °F 27.7 °F 29.3 °F 86% 30.26 in 10.0 mi WNW 5.8 mph - N/A   Clear
6:15 AM 32.5 °F 27.1 °F 29.3 °F 88% 30.27 in 10.0 mi NW 5.8 mph - N/A   Clear
6:35 AM 32.2 °F 27.7 °F 29.1 °F 88% 30.27 in 10.0 mi WNW 4.6 mph - N/A   Clear
6:55 AM 32.2 °F 28.9 °F 29.3 °F 89% 30.28 in 10.0 mi WNW 3.5 mph - N/A   Clear
7:15 AM 32.9 °F 26.7 °F 29.7 °F 88% 30.28 in 10.0 mi NW 6.9 mph - N/A   Mostly Cloudy
7:35 AM 33.3 °F 27.9 °F 29.8 °F 87% 30.28 in 10.0 mi NW 5.8 mph - N/A   Overcast
7:55 AM 33.8 °F 27.0 °F 29.8 °F 85% 30.29 in 10.0 mi NW 8.1 mph - N/A   Overcast
8:15 AM 33.8 °F 28.6 °F 30.0 °F 86% 30.30 in 10.0 mi NW 5.8 mph - N/A   Mostly Cloudy
8:35 AM 34.0 °F 27.2 °F 29.8 °F 85% 30.30 in 10.0 mi NW 8.1 mph - N/A   Scattered Clouds
8:55 AM 34.9 °F 28.3 °F 30.0 °F 82% 30.31 in 10.0 mi NW 8.1 mph - N/A   Clear
9:15 AM 36.1 °F 30.6 °F 30.2 °F 79% 30.31 in 10.0 mi NW 6.9 mph - N/A   Clear
9:35 AM 37.8 °F 30.2 °F 30.9 °F 76% 30.32 in 10.0 mi NW 11.5 mph - N/A   Clear
9:55 AM 39.2 °F 33.0 °F 31.1 °F 73% 30.32 in 10.0 mi NW 9.2 mph - N/A   Clear
10:15 AM 40.1 °F 36.1 °F 31.6 °F 72% 30.33 in 10.0 mi NNW 5.8 mph - N/A   Mostly Cloudy
10:35 AM 41.0 °F 35.2 °F 31.1 °F 68% 30.33 in 10.0 mi NNW 9.2 mph - N/A   Scattered Clouds
10:55 AM 41.4 °F 36.8 °F 31.6 °F 68% 30.34 in 10.0 mi NNW 6.9 mph - N/A   Scattered Clouds
11:15 AM 43.3 °F 39.2 °F 32.5 °F 66% 30.34 in 10.0 mi NW 6.9 mph - N/A   Scattered Clouds
11:35 AM 44.8 °F 39.4 °F 30.0 °F 56% 30.34 in 10.0 mi NW 10.4 mph - N/A   Clear
11:55 AM 45.7 °F 39.1 °F 27.9 °F 50% 30.34 in 10.0 mi NW 15.0 mph - N/A   Clear
12:15 PM 46.8 °F - 28.6 °F 49% 30.34 in 10.0 mi NW 11.5 mph 24.2 mph N/A   Scattered Clouds
12:35 PM 46.2 °F 41.7 °F 28.6 °F 50% 30.33 in 10.0 mi NW 9.2 mph 24.2 mph N/A   Mostly Cloudy
12:55 PM 47.5 °F - 27.1 °F 45% 30.33 in 10.0 mi NW 16.1 mph 23.0 mph N/A   Mostly Cloudy
1:15 PM 47.5 °F - 26.8 °F 45% 30.33 in 10.0 mi NNW 15.0 mph 19.6 mph N/A   Mostly Cloudy
1:35 PM 47.8 °F - 27.3 °F 45% 30.33 in 10.0 mi NNW 13.8 mph 23.0 mph N/A   Mostly Cloudy
1:55 PM 47.5 °F - 26.1 °F 43% 30.33 in 10.0 mi NW 13.8 mph 21.9 mph N/A   Overcast
2:15 PM 48.6 °F - 25.9 °F 41% 30.32 in 10.0 mi NNW 11.5 mph 17.3 mph N/A   Overcast
2:35 PM 48.6 °F - 25.7 °F 41% 30.32 in 10.0 mi WNW 12.7 mph 19.6 mph N/A   Overcast
2:55 PM 48.0 °F - 25.5 °F 41% 30.31 in 10.0 mi NW 8.1 mph - N/A   Overcast
3:15 PM 49.5 °F - 24.1 °F 37% 30.31 in 10.0 mi WNW 11.5 mph 19.6 mph N/A   Mostly Cloudy
3:35 PM 48.4 °F - 25.0 °F 40% 30.31 in 10.0 mi NNW 6.9 mph - N/A   Mostly Cloudy
3:55 PM 48.9 °F - 24.8 °F 39% 30.31 in 10.0 mi NNW 10.4 mph 16.1 mph N/A   Mostly Cloudy
4:15 PM 50.5 °F - 23.7 °F 35% 30.31 in 10.0 mi NW 10.4 mph - N/A   Mostly Cloudy
4:35 PM 49.3 °F - 25.0 °F 39% 30.31 in 10.0 mi WNW 11.5 mph 17.3 mph N/A   Mostly Cloudy
4:55 PM 48.0 °F - 25.5 °F 41% 30.31 in 10.0 mi NW 8.1 mph - N/A   Scattered Clouds
5:15 PM 48.7 °F - 24.6 °F 39% 30.31 in 10.0 mi WNW 10.4 mph - N/A   Scattered Clouds
5:35 PM 48.2 °F - 23.7 °F 38% 30.32 in 10.0 mi NW 9.2 mph - N/A   Scattered Clouds
5:55 PM 47.5 °F - 24.4 °F 41% 30.32 in 10.0 mi WNW 5.8 mph - N/A   Clear
6:15 PM 45.5 °F 43.2 °F 25.5 °F 46% 30.32 in 10.0 mi WNW 4.6 mph - N/A   Clear
6:35 PM 43.7 °F 42.1 °F 25.9 °F 50% 30.33 in 10.0 mi WNW 3.5 mph - N/A   Clear
6:55 PM 42.6 °F 40.9 °F 25.5 °F 51% 30.33 in 10.0 mi West 3.5 mph - N/A   Clear
7:15 PM 40.3 °F - 26.2 °F 57% 30.33 in 10.0 mi Calm Calm - N/A   Scattered Clouds
7:35 PM 39.7 °F - 27.1 °F 61% 30.33 in 10.0 mi Calm Calm - N/A   Scattered Clouds
7:55 PM 38.1 °F - 27.3 °F 65% 30.34 in 10.0 mi Calm Calm - N/A   Clear
8:15 PM 37.6 °F - 27.1 °F 66% 30.34 in 10.0 mi Calm Calm - N/A   Clear
8:35 PM 36.3 °F - 27.3 °F 70% 30.34 in 10.0 mi Calm Calm - N/A   Clear
8:55 PM 34.5 °F - 27.5 °F 76% 30.34 in 10.0 mi Calm Calm - N/A   Clear
9:15 PM 33.8 °F - 27.9 °F 79% 30.34 in 10.0 mi Calm Calm - N/A   Clear
9:35 PM 32.5 °F - 27.7 °F 82% 30.35 in 10.0 mi Calm Calm - N/A   Clear
9:55 PM 32.2 °F - 27.1 °F 82% 30.35 in 10.0 mi Calm Calm - N/A   Clear
10:15 PM 30.9 °F - 27.0 °F 85% 30.35 in 10.0 mi Calm Calm - N/A   Clear
10:35 PM 31.8 °F - 27.9 °F 85% 30.36 in 10.0 mi Calm Calm - N/A   Clear
10:55 PM 30.2 °F - 27.0 °F 88% 30.36 in 10.0 mi Calm Calm - N/A   Clear
11:15 PM 29.8 °F - 27.3 °F 90% 30.36 in 10.0 mi Calm Calm - N/A   Clear
11:35 PM 30.0 °F - 27.1 °F 89% 30.36 in 10.0 mi Calm Calm - N/A   Clear
11:55 PM 29.3 °F - 26.4 °F 89% 30.36 in 10.0 mi Calm Calm - N/A   Clear